DW3015 Weather Reports


time (UTC)temp
F
wind
direction
speed
knots
gust
knots
rain 1hr
in
rain 24hr
in
rain mn
in
humidity
%
barometer
mb
20260502163032 60 284 0.0 0.0 0.00 0.00 0.00 32 1021.6
20260502161523 60 317 0.0 0.0 0.00 0.00 0.00 36 1021.7
20260502151513 56 263 0.0 0.0 0.00 0.00 0.00 44 1021.5
20260502123045 36 38 0.0 0.0 0.00 0.00 0.00 85 1021.4
20260502121547 35 337 0.0 0.0 0.00 0.00 0.00 85 1021.2
20260502114540 35 0.0 0.0 0.00 0.00 0.00 85 1021.0
20260502113039 35 0.0 0.0 0.00 0.00 0.00 85 1020.9
20260502111537 35 0.0 0.0 0.00 0.00 0.00 84 1020.7
20260502110036 35 0.0 0.0 0.00 0.00 0.00 84 1020.6
20260502104543 35 0.0 0.0 0.00 0.00 0.00 84 1020.5
20260502103032 36 0.0 0.0 0.00 0.00 0.00 83 1020.4
20260502101528 36 0.0 0.0 0.00 0.00 0.00 82 1020.3
20260502091524 37 337 0.0 0.0 0.00 0.00 0.00 80 1019.9
20260502071513 40 337 0.0 0.0 0.00 0.00 0.00 74 1019.5
20260502070008 40 338 0.0 0.0 0.00 0.00 0.00 73 1019.6
20260502064509 41 338 0.0 0.0 0.00 0.00 0.00 72 1019.6
20260502063003 41 338 0.0 0.0 0.00 0.00 0.00 70 1019.7
20260502061502 41 338 0.0 0.0 0.00 0.00 0.00 70 1019.7
20260502054557 42 338 0.0 0.0 0.00 0.00 0.00 67 1019.7
20260502053055 43 338 0.0 0.0 0.00 0.00 0.00 65 1019.6
20260502051624 44 338 0.0 0.0 0.00 0.00 0.00 64 1019.7
20260502050048 45 338 0.0 0.0 0.00 0.00 0.00 62 1019.6
20260502044547 46 338 0.0 0.0 0.00 0.00 0.00 59 1019.5
20260502043048 47 338 0.0 0.0 0.00 0.00 0.00 58 1019.3
20260502041545 47 338 0.0 0.0 0.00 0.00 0.00 56 1019.3
20260502040045 47 338 0.0 0.0 0.00 0.00 0.00 57 1019.2
20260502034546 48 338 0.0 0.0 0.00 0.00 0.00 55 1019.1
20260502033051 50 338 0.0 0.0 0.00 0.00 0.00 52 1019.0
20260502031602 51 338 0.0 0.0 0.00 0.00 0.00 51 1018.9
20260502030045 51 337 0.0 0.0 0.00 0.00 0.00 51 1018.7
20260502024546 51 342 0.0 0.0 0.00 0.00 0.00 51 1018.5
20260502023042 51 340 0.0 0.0 0.00 0.00 0.00 53 1018.1
20260502021541 51 346 0.0 0.0 0.00 0.00 0.00 52 1017.9
20260502020046 52 346 0.0 0.0 0.00 0.00 0.00 48 1017.5
20260502014541 53 346 0.0 0.0 0.00 0.00 0.00 44 1017.2
20260502013041 55 360 0.0 0.0 0.00 0.00 0.00 43 1017.0
20260502011547 56 327 0.0 0.0 0.00 0.00 0.00 45 1016.8
20260502010039 57 328 0.0 0.0 0.00 0.00 0.00 44 1016.6
20260502004539 58 346 0.0 0.0 0.00 0.00 0.00 44 1016.4
20260502003039 59 341 0.0 0.0 0.00 0.00 0.00 43 1016.1
20260502001540 62 320 0.0 0.0 0.00 0.00 0.00 40 1016.1
20260502000037 63 344 0.0 0.0 0.00 0.00 0.00 39 1015.9
20260501234548 64 338 0.0 0.0 0.00 0.00 0.00 40 1015.8
20260501233036 65 317 0.0 0.0 0.00 0.00 0.00 36 1015.8
20260501231547 65 343 0.0 0.0 0.00 0.00 0.00 37 1015.7
20260501230038 65 323 0.0 0.0 0.00 0.00 0.00 35 1015.7
20260501224532 65 315 0.0 0.0 0.00 0.00 0.00 37 1015.8
20260501223031 66 322 0.0 0.0 0.00 0.00 0.00 35 1015.9
20260501221532 67 334 0.0 0.0 0.00 0.00 0.00 34 1015.9
20260501220029 68 302 0.0 0.0 0.00 0.00 0.00 32 1016.1
20260501214538 67 355 0.0 0.0 0.00 0.00 0.00 35 1016.1
20260501213027 64 355 0.0 0.0 0.00 0.00 0.00 37 1016.2
20260501211526 64 5 0.0 0.0 0.00 0.00 0.00 38 1016.4
20260501210025 65 355 0.0 0.0 0.00 0.00 0.00 33 1016.5
20260501204523 67 317 0.0 0.0 0.00 0.00 0.00 35 1016.8
20260501203022 65 317 0.0 0.0 0.00 0.00 0.00 33 1016.9
20260501201522 68 350 0.0 0.0 0.00 0.00 0.00 32 1017.0
20260501200021 67 334 0.0 0.0 0.00 0.00 0.00 31 1017.0
20260501194517 66 41 0.0 0.0 0.00 0.00 0.00 33 1017.2
20260501193025 67 273 0.0 0.0 0.00 0.00 0.00 31 1017.2
20260501191514 65 296 0.0 0.0 0.00 0.00 0.00 38 1017.4
20260501190013 65 304 0.0 0.0 0.00 0.00 0.00 38 1017.4
20260501184512 64 351 0.0 0.0 0.00 0.00 0.00 41 1017.3
20260501183012 62 281 0.0 0.0 0.00 0.00 0.00 40 1017.5
20260501181510 62 233 0.0 0.0 0.00 0.00 0.00 38 1017.5
20260501180018 65 331 0.0 0.0 0.00 0.00 0.00 37 1017.5
20260501174510 64 325 0.0 0.0 0.00 0.00 0.00 39 1017.5
20260501173005 63 287 0.0 0.0 0.00 0.00 0.00 41 1017.6
20260501171502 63 218 0.0 0.0 0.00 0.00 0.00 38 1017.8
20260501170002 62 287 0.0 0.0 0.00 0.00 0.00 40 1018.0
20260501164600 62 275 0.0 0.0 0.00 0.00 0.00 40 1018.1